This is the latest recevied weather packets stored in our database for station/object DN9EM-1. If no packets are shown the sender has not sent any weather packets the latest 10 day(s).
| Time | Temp. | Humidity | Pressure | Rain* | Wind** | Luminosity | Snow |
|---|---|---|---|---|---|---|---|
| 1777461056 | 16.11° C | 38% | 1032.3 hPa | 0 mm | - | - | - |
| 1777460447 | 16.67° C | 37% | 1032.3 hPa | 0 mm | - | - | - |
| 1777459844 | 16.67° C | 38% | 1032.4 hPa | 0 mm | - | - | - |
| 1777459242 | 16.67° C | 38% | 1032.4 hPa | 0 mm | - | - | - |
| 1777458634 | 16.11° C | 38% | 1032.6 hPa | 0 mm | - | - | - |
| 1777458032 | 16.11° C | 38% | 1032.7 hPa | 0 mm | - | - | - |
| 1777457423 | 17.22° C | 40% | 1032.6 hPa | 0 mm | - | - | - |
| 1777456820 | 16.11° C | 41% | 1032.6 hPa | 0 mm | - | - | - |
| 1777456218 | 16.67° C | 41% | 1032.7 hPa | 0 mm | - | - | - |
| 1777455670 | 16.11° C | 43% | 1032.8 hPa | 0 mm | - | - | - |
| 1777455067 | 16.11° C | 42% | 1033 hPa | 0 mm | - | - | - |
| 1777454459 | 16.11° C | 43% | 1032.9 hPa | 0 mm | - | - | - |
| 1777453857 | 14.44° C | 44% | 1033 hPa | 0 mm | - | - | - |
| 1777453254 | 15.56° C | 44% | 1032.8 hPa | 0 mm | - | - | - |
| 1777452645 | 14.44° C | 46% | 1032.9 hPa | 0 mm | - | - | - |
| 1777452043 | 14.44° C | 46% | 1032.9 hPa | 0 mm | - | - | - |
| 1777451434 | 14.44° C | 48% | 1032.8 hPa | 0 mm | - | - | - |
| 1777450832 | 13.33° C | 49% | 1032.9 hPa | 0 mm | - | - | - |
| 1777450229 | 13.89° C | 50% | 1032.7 hPa | 0 mm | - | - | - |
| 1777449621 | 13.33° C | 50% | 1032.7 hPa | 0 mm | - | - | - |
| 1777449018 | 12.78° C | 50% | 1032.6 hPa | 0 mm | - | - | - |
| 1777448470 | 13.33° C | 52% | 1032.6 hPa | 0 mm | - | - | - |
| 1777447867 | 13.33° C | 54% | 1032.6 hPa | 0 mm | - | - | - |
| 1777447259 | 12.78° C | 54% | 1032.7 hPa | 0 mm | - | - | - |
| 1777446657 | 13.33° C | 52% | 1032.5 hPa | 0 mm | - | - | - |
* Rain latest hour (hover to see other rain measurements)
** Current wind speed in m/s (hover to see current wind gust speed)